This demonstration page uses our WeatherBlox Daily Observations layout. Learn more.

Left ArrowRight Arrow

36.17497, -115.13722

Hourly Observations for February 24, 2019

Temp ( °F °C ) Dew Point ( °F °C ) Humidity (%) Winds ( mph kmh ) Pressure ( in mb ) Visibility ( mi km ) Precip ( " mm )
12:53 am 00:53 Clear 37 2.8 26 -3.3 65 65 NNW 3 6 30.36 1028 10 16 0.00 0.00
1:53 am 01:53 Clear 36 2.2 25 -3.9 64 64 WNW 5 7 30.35 1028 10 16 0.00 0.00
2:53 am 02:53 Clear 35 1.7 26 -3.3 70 70 NNW 5 7 30.34 1027 10 16 0.00 0.00
3:53 am 03:53 Clear 34 1.1 26 -3.3 73 73 N 6 9 30.33 1027 10 16 0.00 0.00
4:53 am 04:53 Clear 34 1.1 26 -3.3 73 73 NNW 5 7 30.33 1027 10 16 0.00 0.00
5:53 am 05:53 Clear 34 1.1 25 -3.9 70 70 NW 3 6 30.33 1027 10 16 0.00 0.00
6:53 am 06:53 Sunny 33 0.6 25 -3.9 72 72 Calm 30.34 1027 10 16 0.00 0.00
7:53 am 07:53 Sunny 37 2.8 26 -3.3 65 65 Calm 30.33 1027 10 16 0.00 0.00
8:53 am 08:53 Sunny 42 5.6 26 -3.3 53 53 Calm 30.33 1027 10 16 0.00 0.00
9:53 am 09:53 Sunny 46 7.8 23 -5 40 40 Calm 30.31 1027 10 16 0.00 0.00
10:53 am 10:53 Sunny 47 8.3 23 -5 39 39 VRB 3 6 30.31 1026 10 16 0.00 0.00
11:53 am 11:53 Sunny 49 9.4 20 -6.7 32 32 VRB 3 6 30.27 1025 10 16 0.00 0.00
12:53 pm 12:53 Sunny 52 11.1 20 -6.7 28 28 SSE 5 7 30.22 1024 10 16 0.00 0.00
1:53 pm 13:53 Sunny 53 11.7 18 -7.8 25 25 E 3 6 30.19 1022 10 16 0.00 0.00
2:53 pm 14:53 Sunny 54 12.2 15 -9.4 21 21 ESE 3 6 30.17 1022 10 16 0.00 0.00
3:53 pm 15:53 Sunny 55 12.8 18 -7.8 23 23 Calm 30.15 1021 10 16 0.00 0.00
4:53 pm 16:53 Sunny 54 12.2 18 -7.8 24 24 Calm 30.13 1020 10 16 0.00 0.00
5:53 pm 17:53 Clear 53 11.7 17 -8.3 24 24 Calm 30.13 1020 10 16 0.00 0.00
6:53 pm 18:53 Clear 50 10 22 -5.6 33 33 E 5 7 30.14 1021 10 16 0.00 0.00
7:53 pm 19:53 Clear 49 9.4 22 -5.6 35 35 Calm 30.14 1021 10 16 0.00 0.00
8:53 pm 20:53 Clear 46 7.8 25 -3.9 44 44 NW 3 6 30.14 1021 10 16 0.00 0.00
9:53 pm 21:53 Clear 44 6.7 27 -2.8 51 51 WNW 7 11 30.15 1021 10 16 0.00 0.00
10:53 pm 22:53 Clear 42 5.6 29 -1.7 60 60 NNW 3 6 30.14 1021 10 16 0.00 0.00
11:53 pm 23:53 Clear 41 5 29 -1.7 62 62 NNW 3 6 30.14 1021 10 16 0.00 0.00

Powered by AerisWeather